Location: Alt?nova Orta
(36.9295°N, 30.7847°E)
Time: 02:00:50
(UTC+00:00)

Daily predictions for brighter satellites

Satellite Brightness Start Highest point End
(mag) Time Altitude Azimuth Time Altitude Azimuth Time Altitude Azimuth
Milstar 3 Cent rocket 3.9 01:31:25 38° SE 01:31:25 38° SE 01:39:23 10° E
CZ-4C R/B 4.1 01:40:32 22° E 01:40:32 22° E 01:44:08 10° ENE
Cosmos 1943 4.3 01:54:07 39° ENE 01:54:20 39° ENE 01:59:36 10° SE
Lacrosse 4 Rocket 3.8 02:01:49 21° ENE 02:01:49 21° ENE 02:04:50 10° ESE
NOSS 3-4 (A) 4.1 02:13:20 43° NNE 02:13:20 43° NNE 02:17:27 10° NNE
NOSS 3-4 (C) 4.0 02:13:24 44° NNE 02:13:24 44° NNE 02:17:34 10° NNE
Cosmos 1461 4.3 02:15:50 40° ESE 02:15:50 40° ESE 02:19:01 10° SE
NOSS 3-2 (C) 4.1 02:12:37 50° NNW 02:15:05 80° ENE 02:23:48 10° SE
CENTAUR R/B 3.2 02:14:21 46° NNW 02:17:26 82° ENE 02:26:22 10° SSE
BREEZE-M DEB (TANK) 3.7 02:25:37 37° ESE 02:25:37 37° ESE 02:29:56 10° ENE
CZ-4B R/B 4.1 02:25:51 10° SE 02:26:46 16° SE 02:26:46 16° SE
Cosmos 489 Rocket 4.3 02:28:18 67° NW 02:29:12 82° WSW 02:35:32 10° SSE
ATLAS 2AS CENTAUR R/B 2.9 02:27:56 46° SW 02:30:37 75° WNW 02:38:33 10° NNE
Cosmos 1844 Rocket 4.1 02:27:58 10° S 02:33:07 38° ESE 02:38:19 10° NE
Cosmos 1933 3.8 02:41:40 58° SSE 02:41:40 58° SSE 02:45:01 10° S
Cosmos 1151 Rocket 3.5 02:40:05 40° NNE 02:41:23 58° E 02:45:35 10° SSE
GPS 2-04 Rocket1 3.3 02:42:17 54° ESE 02:42:17 54° ESE 02:45:23 10° E
NOSS 3-2 (A) 4.3 02:41:10 45° W 02:42:25 49° WSW 02:50:37 10° S
Cosmos 1782 4.4 02:40:54 14° NNE 02:44:01 35° E 02:47:43 10° SE
ERS-2 2.7 02:41:17 10° SSE 02:44:43 56° E 02:44:43 56° E
Atlas Centaur 2 3.1 02:44:04 32° SW 02:46:23 44° S 02:51:40 10° ESE
SJ-12 4.5 02:45:42 10° NNE 02:49:42 56° E 02:53:40 10° S
Lacrosse 5 2.6 02:52:47 37° NNW 02:52:47 37° NNW 02:56:41 10° NNE
Cosmos 1538 Rocket 4.1 02:53:03 52° WSW 02:53:03 52° WSW 02:57:56 10° S
RESURS DK-1 2.5 02:50:45 22° SSW 02:53:17 72° ESE 02:57:26 10° NNE
ASTRO E2 4.2 02:55:21 24° S 02:55:21 24° S 02:58:26 10° SE
ADEOS 3.4 02:50:55 10° N 02:56:06 64° WNW 03:01:14 10° SSW
ATLAS CENTAUR R/B 3.8 02:55:55 11° N 02:58:19 17° NE 03:00:54 10° E
Cosmos 2263 Rocket 3.8 03:01:26 18° NNW 03:01:26 18° NNW 03:03:23 10° N
OAO 2 Rocket 3.3 02:58:09 50° WSW 02:59:23 72° S 03:04:28 10° E
USA 238 DEB 4.3 02:58:22 37° W 02:59:49 40° WSW 03:06:44 10° S
USA 238 4.3 02:58:25 37° W 02:59:55 40° WSW 03:06:50 10° S
Cosmos 1328 Rocket 3.5 02:58:31 24° N 03:01:12 87° E 03:05:38 10° S
Gbstr 26 Del rocket 4.4 03:01:01 21° N 03:01:58 23° NNE 03:05:08 10° E
Meteor PRIRODA 4.4 03:00:31 10° NNE 03:04:11 55° E 03:07:49 10° S
SJ 16-02 3.3 03:08:47 16° N 03:08:47 16° N 03:09:47 10° N
H-2A R/B 4.5 03:04:05 10° NNE 03:07:40 35° E 03:11:13 10° SSE
Cosmos 1898 Rocket 3.4 03:04:28 10° SSW 03:09:46 82° WNW 03:15:08 10° NNE
Meteor 1-4 Rocket 2.3 03:12:33 64° W 03:12:38 64° W 03:16:03 10° S
Meteor 1-26 Rocket 4.1 03:07:52 10° NNW 03:13:36 72° W 03:19:07 10° S
NOSS 7 (H) 4.2 03:14:41 49° WSW 03:15:26 67° WNW 03:18:29 10° NNE
FENGYUN 3A 4.2 03:15:17 10° N 03:20:06 34° WNW 03:24:53 10° SW
Cosmos 1743 Rocket 3.8 03:16:02 10° S 03:20:26 73° E 03:24:54 10° N
Envisat 4.5 03:17:13 10° NNE 03:21:58 39° E 03:26:41 10° SSE
Cosmos 2181 Rocket 3.9 03:16:15 10° NNW 03:22:18 59° W 03:28:17 10° S
Cosmos 1408 Rocket 3.7 03:18:09 10° SSW 03:22:30 51° W 03:26:51 10° N
COSMO-SKYMED 1 2.4 03:21:28 10° S 03:25:47 75° WSW 03:30:08 10° NNW
Cosmos 1937 Rocket 3.3 03:21:51 10° SSW 03:26:59 79° WNW 03:32:11 10° NNE
CZ-4C R/B 2.4 03:25:49 25° W 03:28:07 39° NW 03:33:25 10° NNE
Cosmos 2154 Rocket 4.4 03:22:16 10° S 03:28:24 67° E 03:34:36 10° NNE
H-2A R/B 4.2 03:25:24 10° NE 03:28:51 31° E 03:32:17 10° SSE
Meteor 2-3 Rocket 4.3 03:24:05 10° SW 03:29:15 35° WNW 03:34:31 10° N
MOS 1 Rocket 4.2 03:29:32 10° SSE 03:34:07 53° ENE 03:39:00 10° N
BREEZE-M DEB (TANK) 3.8 03:30:34 17° NW 03:35:29 46° NNE 03:38:14 10° E
ATLAS 3B R/B 2.9 03:30:53 10° NNW 03:37:54 77° ENE 03:45:11 10° SE
Cosmos 1943 4.2 03:36:00 21° WNW 03:38:07 26° WSW 03:42:45 10° SSW
Cosmos 1805 Rocket 4.3 03:35:21 10° S 03:39:40 56° E 03:44:01 10° NNE
Lacrosse 4 Rocket 2.2 03:38:11 23° WNW 03:40:09 33° WSW 03:44:08 10° S
CZ-4B R/B 3.5 03:39:57 10° N 03:44:08 41° WNW 03:48:13 10° SW
Cosmos 1689 Rocket 2.2 03:41:23 10° S 03:44:09 47° W 03:46:15 16° NNW
SAR-Lupe-4 4.2 03:42:17 10° SSW 03:45:34 35° W 03:48:19 14° NW
Cosmos 2327 Rocket 4.4 03:41:49 10° S 03:47:55 82° W 03:54:02 10° N
Cosmos 2278 Rocket 4.4 03:43:39 10° SSE 03:48:25 29° ESE 03:53:13 10° NE
Cosmos 1862 3.3 03:44:44 10° SSW 03:48:43 59° W 03:52:44 10° N
Cosmos 2074 Rocket 4.1 03:43:20 10° SSW 03:49:20 51° W 03:55:21 10° N
Aureole 2 Rocket 1.6 03:47:23 10° SSW 03:49:51 52° WNW 03:52:21 10° N
Genesis I 4.3 03:49:53 17° W 03:51:30 22° NW 03:54:35 10° N
EO 1 Delta rocket 3.9 03:48:37 10° S 03:53:57 74° W 03:58:38 10° NNW
YAOGAN 6 2.5 03:53:06 10° NNE 03:56:36 89° E 04:00:04 10° SSW
Cosmos 1295 Rocket 4.4 03:54:57 10° S 04:01:02 82° W 04:07:09 10° N
SL-24 DEB 4.5 03:57:12 10° S 04:01:56 79° E 04:06:44 10° N
PSLV R/B 3.8 04:00:32 10° N 04:04:16 52° WNW 04:07:54 10° SSW
Cosmos 405 Rocket 3.1 04:01:45 10° SW 04:05:10 36° WNW 04:08:39 10° N
Cosmos 2184 Rocket 4.5 04:01:01 10° SW 04:06:50 38° WNW 04:12:43 10° N
CENTAUR R/B 4.3 04:01:35 11° WNW 04:07:34 23° WSW 04:14:00 10° SSW
USA 234 3.3 04:06:37 10° NE 04:13:07 71° NW 04:19:37 10° SW
Cosmos 1633 Rocket 4.2 04:09:02 10° SSE 04:13:17 48° E 04:17:33 10° NNE
Cosmos 1812 3.0 04:11:03 10° NNW 04:14:43 44° W 04:18:22 10° SSW
Cosmos 2228 Rocket 3.3 04:10:37 10° NNW 04:14:53 51° W 04:19:07 10° SSW
Cosmos 1844 Rocket 3.5 04:12:17 10° WSW 04:17:02 28° WNW 04:21:52 10° N
GPS 2-04 Rocket1 3.0 04:17:03 10° W 04:20:54 57° SSW 04:24:34 10° ESE
Cosmos 1356 3.3 04:19:04 10° S 04:22:27 81° W 04:25:53 10° N
ATLAS 2AS CENTAUR R/B 4.2 04:17:22 10° W 04:22:57 20° NW 04:28:27 10° N
COSMOS 2455 3.0 04:17:46 10° SW 04:23:37 51° WNW 04:29:30 10° NNE
MOS 1-B 4.4 04:22:22 10° N 04:28:04 59° WNW 04:33:45 10° SSW
